"Pseudo-MPEC" for P112NTU

Created 2020 Aug 6 7:07:08 UT using Find_Orb

Click here for an explanation of pseudo-MPECs

 
 Astrometry: 
     P112NTU  C2020 07 18m@16p$ddk`*A(yFUWTj,-X;`QKA^c+)3A_Astrometry^EJHjd,1F51
     P112NTU  C2020 07 18l+2!=fk#M#g.ibGRdR5RtO6sy^d=kOcParedacted;dm'/JT2hA@F51
     P112NTU  C2020 07 18X)AdHtTn)6A\t+y?[bJB=$5hX!0TuB7=-_k;_9DOZJclickfYCGuF51
     P112NTU KC2020 07 19mC!e!j-4E=ht`YkG?\bXu`.Vf2vyUwt#@Ohvsu0r8xlRW8hereyP474
     P112NTU KC2020 07 19t;/forJ!=gOV@^S:aMCOIp$Yhq15IiM#s!(K@y+a(a(g:v(ht27j474
     P112NTU KC2020 07 196q3-(H1Ku4EvR'L'-4cop*/l3w@Eiexplanation15:DwvF.HABG474
     P112NTU KC2020 07 19qN(s!/[iMP_W_+D7LiZ7Yt[Vp[rV:sMh!Ce\28fqp%#:)^P@q$U'474

Station data:
(474) Mount John Observatory, Lake Tekapo  (S43.987388 E170.464960)  New
   Zealand.  Observers A. C. Gilmore, P. M. Kilmartin. Measurer P. M.
   Kilmartin. 1.0-m f/7.7 reflector + CCD.
(F51) Pan-STARRS 1, Haleakala  (N20.707235 W156.255910)  US/Hawaii.
   Observers N. Primak, A. Schultz, S. Watters, J. Thiel, T. Goggia. Measurer
   PS1 Science Consortium. 1.8-m Ritchey-Chrétien + CCD.

Orbital elements:  P112NTU
   Perihelion 2020 Jun 14.591414 +/- 54.4 TT = 14:11:38 (JD 2459015.091414)
Epoch 2020 Jul 19.0 TT = JDT 2459049.5   Earth MOID: 0.2718   Ma: 0.0491
M   9.34806151 +/- 20               (J2000 ecliptic)          AutoNEOCP
n   0.27167816 +/- 0.181            Peri.  182.24997 +/- 80
a   2.36101939 +/- 1.05             Node    94.62628 +/- 18
e   0.4543094 +/- 0.185             Incl.    5.96482 +/- 2.6
P   3.63                   H 22.3   G  0.15   U 11.6  SR
q 1.28838595 +/- 0.311    Q 3.43365283 +/- 4.03
From 7 observations 2020 July 18-19 (26.9 hr); mean residual 0".30
Residuals in arcseconds: 
200718 F51  .43-  .21-    200719 474  .41-  .21-    200719 474  .06+  .65+    
200718 F51  .04+  .04+    200719 474  .34+  .15-    
200718 F51  .40+  .18+    200719 474  .00   .30-    

Ephemerides (geocentric):
Date (UTC) HH   RA              Dec         delta   r     elong  mag " sig PA
---- -- -- --  -------------   -----------  ------ ------ -----  --- ---- ---
2020 08 06 07  22 15 28.431   -26 19 32.71  .39427 1.3932 161.2 21.8 4039  62
2020 08 06 08  22 15 28.153   -26 19 53.35  .39440 1.3933 161.2 21.8 4062  62
2020 08 06 09  22 15 27.873   -26 20 13.96  .39452 1.3935 161.2 21.8 4084  62
2020 08 06 10  22 15 27.589   -26 20 34.53  .39465 1.3937 161.2 21.8 4107  62
2020 08 06 11  22 15 27.302   -26 20 55.06  .39478 1.3938 161.2 21.8 4130  62
2020 08 06 12  22 15 27.012   -26 21 15.55  .39490 1.3940 161.3 21.8 4154  62
2020 08 06 13  22 15 26.719   -26 21 36.01  .39503 1.3941 161.3 21.8 4177  62
2020 08 06 14  22 15 26.422   -26 21 56.43  .39516 1.3943 161.3 21.8 4200  62
2020 08 06 15  22 15 26.122   -26 22 16.82  .39529 1.3944 161.3 21.8 4224  62
2020 08 06 16  22 15 25.819   -26 22 37.17  .39542 1.3946 161.4 21.8 4247  62
2020 08 06 17  22 15 25.512   -26 22 57.47  .39554 1.3947 161.4 21.8 4271  63
2020 08 06 18  22 15 25.203   -26 23 17.75  .39567 1.3949 161.4 21.8 4295  63
2020 08 06 19  22 15 24.890   -26 23 37.98  .39580 1.3951 161.4 21.8 4318  63
2020 08 06 20  22 15 24.574   -26 23 58.18  .39593 1.3952 161.5 21.8 4342  63
2020 08 06 21  22 15 24.255   -26 24 18.34  .39606 1.3954 161.5 21.8 4366  63
2020 08 06 22  22 15 23.932   -26 24 38.46  .39619 1.3955 161.5 21.8 4391  63
2020 08 06 23  22 15 23.607   -26 24 58.55  .39632 1.3957 161.5 21.8 4415  63
2020 08 07 00  22 15 23.278   -26 25 18.59  .39645 1.3958 161.5 21.8 4439  63
2020 08 07 01  22 15 22.946   -26 25 38.60  .39658 1.3960 161.6 21.8 4464  63
2020 08 07 02  22 15 22.612   -26 25 58.58  .39671 1.3962 161.6 21.8 4488  63
2020 08 07 03  22 15 22.274   -26 26 18.51  .39684 1.3963 161.6 21.8 4513  63
2020 08 07 04  22 15 21.932   -26 26 38.41  .39697 1.3965 161.6 21.8 4538  63
2020 08 07 05  22 15 21.588   -26 26 58.26  .39710 1.3966 161.7 21.8 4563  63
2020 08 07 06  22 15 21.241   -26 27 18.08  .39723 1.3968 161.7 21.8 4588  63
2020 08 07 07  22 15 20.890   -26 27 37.87  .39736 1.3969 161.7 21.8 4613  63
2020 08 07 08  22 15 20.537   -26 27 57.61  .39750 1.3971 161.7 21.8 4638  63
2020 08 07 09  22 15 20.180   -26 28 17.32  .39763 1.3973 161.7 21.8 4663  63
2020 08 07 10  22 15 19.820   -26 28 36.99  .39776 1.3974 161.8 21.8 4689  63
2020 08 07 11  22 15 19.458   -26 28 56.61  .39789 1.3976 161.8 21.8 4714  63
2020 08 07 12  22 15 19.092   -26 29 16.21  .39802 1.3977 161.8 21.8 4740  63
2020 08 07 13  22 15 18.723   -26 29 35.76  .39816 1.3979 161.8 21.8 4766  63
2020 08 07 14  22 15 18.351   -26 29 55.27  .39829 1.3980 161.9 21.8 4792  63
2020 08 07 15  22 15 17.977   -26 30 14.75  .39842 1.3982 161.9 21.8 4818  63
2020 08 07 16  22 15 17.599   -26 30 34.19  .39856 1.3984 161.9 21.8 4844  63
2020 08 07 17  22 15 17.218   -26 30 53.59  .39869 1.3985 161.9 21.8 4870  63
2020 08 07 18  22 15 16.834   -26 31 12.95  .39882 1.3987 161.9 21.8 4897  63
2020 08 07 19  22 15 16.447   -26 31 32.27  .39896 1.3988 162.0 21.8 4923  63
2020 08 07 20  22 15 16.058   -26 31 51.56  .39909 1.3990 162.0 21.8 4950  63
2020 08 07 21  22 15 15.665   -26 32 10.80  .39923 1.3991 162.0 21.8 4976  63
2020 08 07 22  22 15 15.269   -26 32 30.01  .39936 1.3993 162.0 21.8 5003  63
2020 08 07 23  22 15 14.871   -26 32 49.18  .39950 1.3995 162.1 21.8 5030  64
2020 08 08 00  22 15 14.469   -26 33 08.31  .39963 1.3996 162.1 21.8 5057  64
2020 08 08 01  22 15 14.065   -26 33 27.40  .39977 1.3998 162.1 21.8 5084  64
2020 08 08 02  22 15 13.658   -26 33 46.45  .39990 1.3999 162.1 21.8 5112  64
2020 08 08 03  22 15 13.247   -26 34 05.46  .40004 1.4001 162.1 21.8 5139  64
2020 08 08 04  22 15 12.834   -26 34 24.43  .40017 1.4003 162.2 21.8 5167  64
2020 08 08 05  22 15 12.418   -26 34 43.37  .40031 1.4004 162.2 21.8 5194  64
2020 08 08 06  22 15 11.999   -26 35 02.26  .40045 1.4006 162.2 21.8 5222  64